Regional Weather Roundup
Issued by NWS

Home | Current Version | Previous Version | Text Only | Print | Product List | Glossary Off
Versions: 1 2 3 4 5 6 7 8 9 10 11 12 13 14 15 16 17 18 19 20 21 22 23 24 25 26

000
ASUS45 KBOU 212310
RWRCO

WEATHER ROUNDUP FOR COLORADO
NATIONAL WEATHER SERVICE DENVER/BOULDER CO
500 PM MDT MON MAY 21 2018

NOTE: "FAIR" INDICATES FEW OR NO CLOUDS BELOW 12000 FEET WITH NO
SIGNIFICANT WEATHER AND/OR OBSTRUCTIONS TO VISIBILITY.

COZ001>005-013-030-031-220000-
...NORTHWEST COLORADO...

CITY           SKY/WX    TMP DP  RH WIND       PRES   REMARKS
CRAIG          FAIR      74  28  18 S6        29.95F
HAYDEN         FAIR      71  27  19 CALM      29.99F
MEEKER         FAIR      76  16  10 CALM      29.95F
RANGELY        FAIR      79  15   9 SW13G18   29.88F
RABBIT EARS PA FAIR      55  21  26 W7        30.25F
STEAMBOAT SPGS FAIR      71  28  19 W6        30.00F
WALDEN         FAIR      68  23  18 W9        30.10F
$$

COZ006>008-011-220000-
...WEST CENTRAL VALLEYS...

CITY           SKY/WX    TMP DP  RH WIND       PRES   REMARKS
GRAND JUNCTION FAIR      83  25  12 W9        29.81F
MONTROSE       FAIR      79  15   9 VRB3      29.89F
EAGLE          FAIR      76  21  12 CALM      29.98F
RIFLE          FAIR      80  16   9 NW5       29.88F
DELTA          FAIR      85  16   7 SE5       29.86S
NUCLA          NOT AVBL
$$

COZ017>023-064>068-220000-
...SOUTHWEST COLORADO...

CITY           SKY/WX    TMP DP  RH WIND       PRES   REMARKS
DURANGO        PTSUNNY   57  46  66 NE25      30.11S
CORTEZ         FAIR      69  37  30 SE29G41   29.94R
PAGOSA SPRINGS FAIR      52  40  62 NE7G16    30.21F
TELLURIDE      LGT RAIN  54  33  44 S12G33    30.19R
WOLF CREEK PAS SNOW      32  32 100 W3        30.46R VSB<1/4
$$

COZ009-010-012-014-032>034-037-058>063-220000-
...CENTRAL COLORADO...

CITY           SKY/WX    TMP DP  RH WIND       PRES   REMARKS
ASPEN          FAIR      69  23  17 VRB5      30.04S
BUENA VISTA    FAIR      57  35  43 S17G24    30.16S
COPPER MTN     FAIR      54  14  20 W7        30.36S
BERTHOUD PASS  CLOUDY    37  28  70 E12G18    30.38F
COTTONWOOD PAS PTSUNNY   55  36  47 SE17G29   30.23S
GUNNISON       FAIR      64  34  32 SE31G41   30.05S
GRANBY         FAIR      67  23  19 NW10      30.10F
KREMMLING      FAIR      79  10   7 W13       30.04S
LEADVILLE      CLOUDY    55  25  31 S21G29    30.19S
MONARCH PASS   CLOUDY    41  30  65 MISG      30.49R
SALIDA         PTSUNNY   55  44  65 SE10      30.23F
SUNLIGHT       FAIR      54  18  24 SW5       30.28S
WILKERSON PASS CLOUDY    45  28  53 S8        30.37R
$$

COZ069>075-220000-
...SAN LUIS VALLEY/SANGRE DE CRISTO MOUNTAINS...

CITY           SKY/WX    TMP DP  RH WIND       PRES   REMARKS
ALAMOSA        LGT RAIN  56  40  55 W16G23    30.17F
DEL NORTE      RAIN      47  43  85 SW12      30.27R
LA VETA PASS   FAIR      45  36  70 E9        30.43R
SAGUACHE       NOT AVBL
$$

COZ035-036-038>040-220000-
...NORTHERN COLORADO FRONT RANGE...

CITY           SKY/WX    TMP DP  RH WIND       PRES   REMARKS
DENVER INTL AP PTSUNNY   78  33  19 E7        29.94F
AURORA         MOSUNNY   77  34  21 E5        29.96F
FRONT RANGE AP PTSUNNY   79  30  17 E6        29.96F
ERIE MUNI ARPT FAIR      78  30  17 SE3       29.98
BOULDER MUN AP FAIR      75  46  35 E5        29.94S
CENTENNIAL     PTSUNNY   73  35  25 VRB3      29.98F
BROOMFIELD     PTSUNNY   77  37  24 SE9       29.97
FORT COLLINS   FAIR      77  48  35 SE6       29.95F
LONGMONT       FAIR      80  47  31 SE3       29.95S
$$

COZ041-046-047-076>085-087-088-220000-
...PIKES PEAK/PALMER DIVIDE AND SOUTHERN FOOTHILLS...

CITY           SKY/WX    TMP DP  RH WIND       PRES   REMARKS
COLO. SPRINGS  PTSUNNY   72  34  24 SW23G36   30.03R
A. F. ACADEMY  CLOUDY    69  33  26 W10G23    30.04R
SCHRIEVER AFB  NOT AVBL
CHEYENNE MTN   FAIR      67  31  25 S7G17     30.03R
ELLICOTT         N/A    N/A N/A N/A SW29G37   30.02S
FALCON         FAIR      68  31  25 S23G31    30.08R
FORT CARSON    FAIR      74  32  22 SW17G24   30.00R
LIMON          FAIR      79  21  11 SW15G28   29.94F
MONUMENT HILL  CLOUDY    66  32  28 W8        30.10R
CANON CITY     FAIR      77  36  22 W14G21    29.97F
WALSENBURG     MOCLDY    66  43  42 SW17      30.09S
TRINIDAD       LGT RAIN  65  40  39 S12       30.10R
$$

COZ042>045-048>051-090-091-220000-
...NORTHEAST COLORADO...

CITY           SKY/WX    TMP DP  RH WIND       PRES   REMARKS
GREELEY ARPT   FAIR      76  48  37 E8        29.93F
AKRON          FAIR      74  55  51 E8        29.94S
BURLINGTON     FAIR      81  48  31 S14       29.92F
WRAY           FAIR      81  52  36 S5        29.90F
YUMA           FAIR      73  52  46 SE9       29.91F
STERLING       FAIR      79  52  38 SE8       29.90F
HOLYOKE        FAIR      81  52  36 S3        29.92S
FORT MORGAN    FAIR      81  42  24 E10       29.93F
$$

COZ086-089-092>099-220000-
...SOUTHEAST COLORADO...

CITY           SKY/WX    TMP DP  RH WIND       PRES   REMARKS
PUEBLO         FAIR      75  38  26 S17G30    29.94F
LA JUNTA       FAIR      82  34  17 SW12      29.91F
LAMAR          LGT RAIN  73  51  46 SE5       29.89R
SPRINGFIELD      N/A     78  50  37 S21G29    29.97R
$$




USA.gov is the U.S. government's official web portal to all federal, state and local government web resources and services.